Time,TemperatureF,DewpointF,PressureIn,WindDirection,WindDirectionDegrees,WindSpeedMPH,WindSpeedGustMPH,Humidity,HourlyPrecipIn,Conditions,Clouds,dailyrainin,SolarRadiationWatts/m^2,SoftwareType,DateUTC
2013-01-11 00:00:00,60.0,56.7,29.87,SW,233,14.0,27.0,89,0.00,RA,,0.00,0.0,WeatherDisplay:10.37,2013-01-11 06:00:00,
2013-01-11 00:10:00,59.8,56.3,29.87,SW,235,13.0,26.0,88,0.00,OVC,,0.00,0.0,WeatherDisplay:10.37,2013-01-11 06:10:00,
2013-01-11 00:20:00,59.7,56.1,29.86,SW,230,14.0,20.0,88,0.00,OVC,,0.00,0.0,WeatherDisplay:10.37,2013-01-11 06:20:00,
2013-01-11 00:30:00,59.5,55.9,29.86,SW,227,12.0,23.0,88,0.00,OVC,,0.00,0.0,WeatherDisplay:10.37,2013-01-11 06:30:00,
2013-01-11 00:40:00,59.4,55.5,29.86,SW,226,10.0,18.0,87,0.00,OVC,,0.00,0.0,WeatherDisplay:10.37,2013-01-11 06:40:00,
2013-01-11 00:50:00,59.1,55.5,29.87,SW,222,9.0,13.0,88,0.00,OVC,,0.00,0.0,WeatherDisplay:10.37,2013-01-11 06:50:00,
2013-01-11 01:00:00,59.0,55.8,29.87,SW,219,7.0,13.0,89,0.00,OVC,,0.00,0.0,WeatherDisplay:10.37,2013-01-11 07:00:00,
2013-01-11 01:10:00,59.0,55.8,29.87,SSW,209,7.0,10.0,89,0.00,OVC,,0.00,0.0,WeatherDisplay:10.37,2013-01-11 07:10:00,
2013-01-11 01:20:00,58.9,55.7,29.88,SW,214,8.0,13.0,89,0.00,OVC,,0.00,0.0,WeatherDisplay:10.37,2013-01-11 07:20:00,
2013-01-11 01:30:00,58.6,55.7,29.88,SSW,212,8.0,13.0,90,0.01,RA,,0.01,0.0,WeatherDisplay:10.37,2013-01-11 07:30:00,
2013-01-11 01:40:00,58.5,55.9,29.88,SSW,211,8.0,13.0,91,0.00,OVC,,0.01,0.0,WeatherDisplay:10.37,2013-01-11 07:40:00,
2013-01-11 01:50:00,58.5,55.9,29.88,SSW,208,7.0,10.0,91,0.00,OVC,,0.01,0.0,WeatherDisplay:10.37,2013-01-11 07:50:00,
2013-01-11 02:00:00,58.6,56.0,29.89,SW,215,9.0,12.0,91,0.00,OVC,,0.01,0.0,WeatherDisplay:10.37,2013-01-11 08:00:00,
2013-01-11 02:10:00,58.6,55.7,29.89,SW,214,6.0,10.0,90,0.00,OVC,,0.01,0.0,WeatherDisplay:10.37,2013-01-11 08:10:00,
2013-01-11 02:20:00,58.6,55.7,29.89,SW,219,7.0,12.0,90,0.00,OVC,,0.01,0.0,WeatherDisplay:10.37,2013-01-11 08:20:00,
2013-01-11 02:30:00,58.6,56.0,29.90,SW,222,6.0,12.0,91,0.00,OVC,,0.01,0.0,WeatherDisplay:10.37,2013-01-11 08:30:00,
2013-01-11 02:40:00,58.7,56.0,29.91,SW,217,7.0,12.0,91,0.00,OVC,,0.01,0.0,WeatherDisplay:10.37,2013-01-11 08:40:00,
2013-01-11 02:50:00,58.6,56.0,29.90,SW,219,8.0,12.0,91,0.00,OVC,,0.01,0.0,WeatherDisplay:10.37,2013-01-11 08:50:00,
2013-01-11 03:00:00,58.6,55.7,29.91,SW,216,7.0,12.0,90,0.00,OVC,,0.01,0.0,WeatherDisplay:10.37,2013-01-11 09:00:00,
2013-01-11 03:10:00,58.6,55.7,29.91,SW,220,7.0,10.0,90,0.00,OVC,,0.01,0.0,WeatherDisplay:10.37,2013-01-11 09:10:00,
2013-01-11 03:20:00,58.4,55.5,29.91,SW,224,7.0,12.0,90,0.00,OVC,,0.01,0.0,WeatherDisplay:10.37,2013-01-11 09:20:00,
2013-01-11 03:30:00,58.1,55.2,29.91,SW,221,7.0,12.0,90,0.00,OVC,,0.01,0.0,WeatherDisplay:10.37,2013-01-11 09:30:00,
2013-01-11 03:40:00,58.0,55.1,29.91,SW,218,7.0,13.0,90,0.00,OVC,,0.01,0.0,WeatherDisplay:10.37,2013-01-11 09:40:00,
2013-01-11 03:50:00,57.8,54.9,29.92,SW,224,7.0,12.0,90,0.00,OVC,,0.01,0.0,WeatherDisplay:10.37,2013-01-11 09:50:00,
2013-01-11 04:00:00,57.4,54.8,29.92,SW,222,6.0,10.0,91,0.00,OVC,,0.01,0.0,WeatherDisplay:10.37,2013-01-11 10:00:00,
2013-01-11 04:10:00,57.1,54.5,29.92,SW,225,6.0,9.0,91,0.00,OVC,,0.01,0.0,WeatherDisplay:10.37,2013-01-11 10:10:00,
2013-01-11 04:20:00,57.0,54.4,29.92,SW,218,6.0,9.0,91,0.00,OVC,,0.01,0.0,WeatherDisplay:10.37,2013-01-11 10:20:00,
2013-01-11 04:30:00,56.7,54.4,29.91,SW,215,6.0,9.0,92,0.00,OVC,,0.01,0.0,WeatherDisplay:10.37,2013-01-11 10:30:00,
2013-01-11 04:40:00,56.6,54.3,29.92,SSW,212,5.0,8.0,92,0.00,OVC,,0.01,0.0,WeatherDisplay:10.37,2013-01-11 10:40:00,
2013-01-11 04:50:00,56.3,54.0,29.92,SSW,210,5.0,10.0,92,0.00,OVC,,0.01,0.0,WeatherDisplay:10.37,2013-01-11 10:50:00,
2013-01-11 05:00:00,56.1,53.8,29.92,SSW,210,5.0,8.0,92,0.00,OVC,,0.01,0.0,WeatherDisplay:10.37,2013-01-11 11:00:00,
2013-01-11 05:10:00,55.8,53.5,29.92,SSW,209,5.0,7.0,92,0.00,OVC,,0.01,0.0,WeatherDisplay:10.37,2013-01-11 11:10:00,
2013-01-11 05:20:00,55.9,53.6,29.93,SSW,212,6.0,9.0,92,0.00,OVC,,0.01,0.0,WeatherDisplay:10.37,2013-01-11 11:20:00,
2013-01-11 05:30:00,55.8,53.5,29.93,SW,215,7.0,12.0,92,0.00,OVC,,0.01,0.0,WeatherDisplay:10.37,2013-01-11 11:30:00,
2013-01-11 05:40:00,55.9,53.6,29.92,SW,216,6.0,10.0,92,0.00,OVC,,0.01,0.0,WeatherDisplay:10.37,2013-01-11 11:40:00,
2013-01-11 05:50:00,55.8,53.5,29.93,SSW,210,5.0,12.0,92,0.00,OVC,,0.01,0.0,WeatherDisplay:10.37,2013-01-11 11:50:00,
2013-01-11 06:00:00,55.5,53.3,29.93,SSW,210,6.0,10.0,92,0.00,OVC,,0.01,0.0,WeatherDisplay:10.37,2013-01-11 12:00:00,
2013-01-11 06:10:00,55.2,52.9,29.93,SSW,206,3.0,9.0,92,0.00,OVC,,0.01,0.0,WeatherDisplay:10.37,2013-01-11 12:10:00,
2013-01-11 06:20:00,54.6,52.6,29.93,SSW,194,3.0,8.0,93,0.00,OVC,,0.01,0.0,WeatherDisplay:10.37,2013-01-11 12:20:00,
2013-01-11 06:30:00,54.5,52.5,29.94,SSW,210,5.0,8.0,93,0.00,OVC,,0.01,0.0,WeatherDisplay:10.37,2013-01-11 12:30:00,
2013-01-11 06:40:00,54.4,52.4,29.94,SSW,202,3.0,8.0,93,0.00,OVC,,0.01,0.0,WeatherDisplay:10.37,2013-01-11 12:40:00,
2013-01-11 06:50:00,54.2,52.3,29.94,SSW,198,5.0,8.0,93,0.00,OVC,,0.01,0.0,WeatherDisplay:10.37,2013-01-11 12:50:00,
2013-01-11 07:00:00,54.0,52.0,29.94,SSW,193,3.0,7.0,93,0.00,OVC,,0.01,0.0,WeatherDisplay:10.37,2013-01-11 13:00:00,
2013-01-11 07:10:00,53.8,51.8,29.95,SSW,201,3.0,7.0,93,0.00,OVC,,0.01,0.0,WeatherDisplay:10.37,2013-01-11 13:10:00,
2013-01-11 07:20:00,53.7,51.7,29.95,SSW,208,5.0,7.0,93,0.00,OVC,,0.01,0.0,WeatherDisplay:10.37,2013-01-11 13:20:00,
2013-01-11 07:30:00,54.1,51.8,29.95,SSW,213,5.0,8.0,92,0.00,OVC,,0.01,0.0,WeatherDisplay:10.37,2013-01-11 13:30:00,
2013-01-11 07:40:00,54.1,51.8,29.96,SW,215,6.0,7.0,92,0.00,OVC,,0.01,0.0,WeatherDisplay:10.37,2013-01-11 13:40:00,
2013-01-11 07:50:00,54.5,51.9,29.97,SW,222,3.0,9.0,91,0.00,OVC,,0.01,0.0,WeatherDisplay:10.37,2013-01-11 13:50:00,
2013-01-11 08:00:00,54.9,52.0,29.97,SW,216,5.0,8.0,90,0.00,OVC,,0.01,0.0,WeatherDisplay:10.37,2013-01-11 14:00:00,
2013-01-11 08:10:00,55.5,52.6,29.98,SW,217,5.0,10.0,90,0.00,OVC,,0.01,0.0,WeatherDisplay:10.37,2013-01-11 14:10:00,
2013-01-11 08:20:00,55.9,52.4,29.98,SW,215,5.0,9.0,88,0.00,OVC,,0.01,0.0,WeatherDisplay:10.37,2013-01-11 14:20:00,
2013-01-11 08:30:00,56.4,52.6,29.98,SSW,209,6.0,8.0,87,0.00,OVC,,0.01,0.0,WeatherDisplay:10.37,2013-01-11 14:30:00,
2013-01-11 08:40:00,56.3,52.5,29.98,SSW,209,6.0,9.0,87,0.00,OVC,,0.01,0.0,WeatherDisplay:10.37,2013-01-11 14:40:00,
2013-01-11 08:50:00,57.0,53.5,29.98,SSW,212,5.0,7.0,88,0.00,OVC,,0.01,0.0,WeatherDisplay:10.37,2013-01-11 14:50:00,
2013-01-11 09:00:00,56.9,53.0,29.98,SW,216,7.0,12.0,87,0.00,OVC,,0.01,0.0,WeatherDisplay:10.37,2013-01-11 15:00:00,
2013-01-11 09:10:00,56.4,52.6,29.98,SSW,212,8.0,14.0,87,0.00,OVC,,0.01,0.0,WeatherDisplay:10.37,2013-01-11 15:10:00,
2013-01-11 09:20:00,56.2,52.7,29.98,SSW,208,7.0,10.0,88,0.00,OVC,,0.01,0.0,WeatherDisplay:10.37,2013-01-11 15:20:00,
2013-01-11 09:30:00,57.4,53.5,29.98,SW,218,7.0,10.0,87,0.00,OVC,,0.01,0.0,WeatherDisplay:10.37,2013-01-11 15:30:00,
2013-01-11 09:40:00,58.4,54.6,29.99,SW,215,6.0,12.0,87,0.00,OVC,,0.01,0.0,WeatherDisplay:10.37,2013-01-11 15:40:00,
2013-01-11 09:50:00,58.7,54.2,29.99,SW,221,9.0,13.0,85,0.00,OVC,,0.01,0.0,WeatherDisplay:10.37,2013-01-11 15:50:00,
2013-01-11 10:00:00,58.2,53.0,29.99,SSW,211,10.0,16.0,83,0.00,OVC,,0.01,0.0,WeatherDisplay:10.37,2013-01-11 16:00:00,
2013-01-11 10:10:00,57.9,53.4,29.99,SW,214,7.0,15.0,85,0.00,OVC,,0.01,0.0,WeatherDisplay:10.37,2013-01-11 16:10:00,
2013-01-11 10:20:00,58.6,53.4,29.98,SSW,213,9.0,15.0,83,0.00,OVC,,0.01,0.0,WeatherDisplay:10.37,2013-01-11 16:20:00,
2013-01-11 10:30:00,59.2,53.7,29.98,SSW,210,8.0,18.0,82,0.00,OVC,,0.01,0.0,WeatherDisplay:10.37,2013-01-11 16:30:00,
2013-01-11 10:40:00,59.3,53.5,29.98,SSW,212,9.0,14.0,81,0.00,OVC,,0.01,0.0,WeatherDisplay:10.37,2013-01-11 16:40:00,
2013-01-11 10:50:00,59.7,54.2,29.97,SSW,213,9.0,20.0,82,0.00,OVC,,0.01,0.0,WeatherDisplay:10.37,2013-01-11 16:50:00,
2013-01-11 11:00:00,60.3,53.8,29.96,SSW,206,12.0,14.0,79,0.00,OVC,,0.01,0.0,WeatherDisplay:10.37,2013-01-11 17:00:00,
2013-01-11 11:10:00,60.7,54.2,29.95,SSW,197,9.0,14.0,79,0.00,OVC,,0.01,0.0,WeatherDisplay:10.37,2013-01-11 17:10:00,
2013-01-11 11:20:00,61.3,54.4,29.95,South,183,8.0,12.0,78,0.00,OVC,,0.01,0.0,WeatherDisplay:10.37,2013-01-11 17:20:00,
2013-01-11 11:30:00,61.9,55.0,29.95,South,188,7.0,12.0,78,0.00,OVC,,0.01,0.0,WeatherDisplay:10.37,2013-01-11 17:30:00,
2013-01-11 11:40:00,61.5,55.3,29.95,SSW,212,7.0,13.0,80,0.00,OVC,,0.01,0.0,WeatherDisplay:10.37,2013-01-11 17:40:00,
2013-01-11 11:50:00,61.6,53.2,29.95,SSW,211,10.0,15.0,74,0.00,OVC,,0.01,0.0,WeatherDisplay:10.37,2013-01-11 17:50:00,
2013-01-11 12:00:00,61.6,52.9,29.95,SSW,212,10.0,15.0,73,0.00,OVC,,0.01,0.0,WeatherDisplay:10.37,2013-01-11 18:00:00,
2013-01-11 12:10:00,62.0,52.5,29.94,SSW,202,10.0,16.0,71,0.00,OVC,,0.01,0.0,WeatherDisplay:10.37,2013-01-11 18:10:00,
2013-01-11 12:20:00,62.3,53.2,29.94,SW,215,10.0,15.0,72,0.00,OVC,,0.01,0.0,WeatherDisplay:10.37,2013-01-11 18:20:00,
2013-01-11 12:30:00,62.5,53.0,29.94,SW,217,9.0,17.0,71,0.00,OVC,,0.01,0.0,WeatherDisplay:10.37,2013-01-11 18:30:00,
2013-01-11 12:40:00,62.6,53.1,29.95,SW,218,9.0,14.0,71,0.00,OVC,,0.01,0.0,WeatherDisplay:10.37,2013-01-11 18:40:00,
2013-01-11 12:50:00,62.8,52.9,29.94,SSW,210,10.0,14.0,70,0.00,OVC,,0.01,0.0,WeatherDisplay:10.37,2013-01-11 18:50:00,
2013-01-11 13:00:00,62.4,52.8,29.94,SW,222,9.0,14.0,71,0.00,OVC,,0.01,0.0,WeatherDisplay:10.37,2013-01-11 19:00:00,
2013-01-11 13:10:00,62.9,53.4,29.94,SSW,208,8.0,14.0,71,0.00,OVC,,0.01,0.0,WeatherDisplay:10.37,2013-01-11 19:10:00,
2013-01-11 13:20:00,62.4,52.5,29.94,SW,215,8.0,13.0,70,0.00,OVC,,0.01,0.0,WeatherDisplay:10.37,2013-01-11 19:20:00,
2013-01-11 13:30:00,63.2,54.0,29.93,SSW,204,7.0,12.0,72,0.00,OVC,,0.01,0.0,WeatherDisplay:10.37,2013-01-11 19:30:00,
2013-01-11 13:40:00,63.2,53.6,29.93,SSW,213,9.0,15.0,71,0.00,OVC,,0.01,0.0,WeatherDisplay:10.37,2013-01-11 19:40:00,
2013-01-11 13:50:00,63.3,53.4,29.93,SSW,207,7.0,14.0,70,0.00,OVC,,0.01,0.0,WeatherDisplay:10.37,2013-01-11 19:50:00,
2013-01-11 14:10:00,64.1,53.3,29.93,SSW,194,7.0,18.0,68,0.00,OVC,,0.01,0.0,WeatherDisplay:10.37,2013-01-11 20:10:00,
2013-01-11 14:20:00,63.9,53.5,29.93,SSW,203,7.0,10.0,69,0.00,OVC,,0.01,0.0,WeatherDisplay:10.37,2013-01-11 20:20:00,
2013-01-11 14:30:00,63.6,53.6,29.93,South,191,7.0,12.0,70,0.00,OVC,,0.01,0.0,WeatherDisplay:10.37,2013-01-11 20:30:00,
2013-01-11 14:40:00,63.4,52.2,29.93,SSW,212,9.0,15.0,67,0.00,OVC,,0.01,0.0,WeatherDisplay:10.37,2013-01-11 20:40:00,
2013-01-11 14:50:00,62.9,52.6,29.93,SSW,197,7.0,12.0,69,0.00,OVC,,0.01,0.0,WeatherDisplay:10.37,2013-01-11 20:50:00,
2013-01-11 15:00:00,62.6,52.7,29.93,South,191,6.0,12.0,70,0.00,OVC,,0.01,0.0,WeatherDisplay:10.37,2013-01-11 21:00:00,
2013-01-11 15:10:00,63.3,53.7,29.93,South,187,5.0,10.0,71,0.00,OVC,,0.01,0.0,WeatherDisplay:10.37,2013-01-11 21:10:00,
2013-01-11 15:20:00,63.8,53.4,29.93,SSW,196,7.0,10.0,69,0.00,OVC,,0.01,0.0,WeatherDisplay:10.37,2013-01-11 21:20:00,
2013-01-11 15:30:00,64.4,53.6,29.93,South,187,5.0,10.0,68,0.00,OVC,,0.01,0.0,WeatherDisplay:10.37,2013-01-11 21:30:00,
2013-01-11 15:40:00,64.7,53.5,29.92,South,182,5.0,9.0,67,0.00,OVC,,0.01,0.0,WeatherDisplay:10.37,2013-01-11 21:40:00,
2013-01-11 15:50:00,64.5,53.3,29.92,SSW,194,6.0,12.0,67,0.00,OVC,,0.01,0.0,WeatherDisplay:10.37,2013-01-11 21:50:00,
2013-01-11 16:00:00,64.5,53.7,29.92,South,180,5.0,12.0,68,0.00,OVC,,0.01,0.0,WeatherDisplay:10.37,2013-01-11 22:00:00,
2013-01-11 16:10:00,63.8,53.4,29.91,South,181,5.0,8.0,69,0.00,OVC,,0.01,0.0,WeatherDisplay:10.37,2013-01-11 22:10:00,
2013-01-11 16:20:00,62.9,53.0,29.91,South,181,5.0,10.0,70,0.00,OVC,,0.01,0.0,WeatherDisplay:10.37,2013-01-11 22:20:00,
2013-01-11 16:30:00,62.3,52.8,29.91,South,184,5.0,8.0,71,0.00,OVC,,0.01,0.0,WeatherDisplay:10.37,2013-01-11 22:30:00,
2013-01-11 16:40:00,62.1,52.6,29.91,South,188,5.0,7.0,71,0.00,OVC,,0.01,0.0,WeatherDisplay:10.37,2013-01-11 22:40:00,
2013-01-11 16:50:00,61.5,52.4,29.91,South,181,3.0,8.0,72,0.00,OVC,,0.01,0.0,WeatherDisplay:10.37,2013-01-11 22:50:00,
2013-01-11 17:00:00,60.6,51.5,29.91,South,185,3.0,6.0,72,0.00,OVC,,0.01,0.0,WeatherDisplay:10.37,2013-01-11 23:00:00,
2013-01-11 17:10:00,59.7,51.1,29.91,South,179,3.0,6.0,73,0.00,OVC,,0.01,0.0,WeatherDisplay:10.37,2013-01-11 23:10:00,
2013-01-11 17:20:00,59.1,51.1,29.91,SSE,155,3.0,6.0,75,0.00,OVC,,0.01,0.0,WeatherDisplay:10.37,2013-01-11 23:20:00,
2013-01-11 17:30:00,58.4,50.5,29.90,SSE,154,2.0,5.0,75,0.00,OVC,,0.01,0.0,WeatherDisplay:10.37,2013-01-11 23:30:00,
2013-01-11 17:40:00,58.5,50.6,29.90,SSE,148,3.0,5.0,75,0.00,OVC,,0.01,0.0,WeatherDisplay:10.37,2013-01-11 23:40:00,
2013-01-11 17:50:00,58.6,50.7,29.90,SE,143,3.0,4.0,75,0.00,OVC,,0.01,0.0,WeatherDisplay:10.37,2013-01-11 23:50:00,
2013-01-11 18:00:00,58.5,50.2,29.90,SE,145,3.0,5.0,74,0.00,OVC,,0.01,0.0,WeatherDisplay:10.37,2013-01-12 00:00:00,
2013-01-11 18:10:00,58.4,50.1,29.91,SE,145,2.0,4.0,74,0.00,OVC,,0.01,0.0,WeatherDisplay:10.37,2013-01-12 00:10:00,
2013-01-11 18:20:00,58.4,50.1,29.90,SE,138,1.0,3.0,74,0.00,OVC,,0.01,0.0,WeatherDisplay:10.37,2013-01-12 00:20:00,
2013-01-11 18:30:00,58.1,50.2,29.90,SE,138,2.0,3.0,75,0.00,OVC,,0.01,0.0,WeatherDisplay:10.37,2013-01-12 00:30:00,
2013-01-11 18:40:00,57.7,49.8,29.91,SE,137,1.0,2.0,75,0.00,OVC,,0.01,0.0,WeatherDisplay:10.37,2013-01-12 00:40:00,
2013-01-11 18:50:00,57.3,49.8,29.91,SE,137,0.0,2.0,76,0.00,OVC,,0.01,0.0,WeatherDisplay:10.37,2013-01-12 00:50:00,
2013-01-11 19:00:00,56.6,49.5,29.91,SE,136,0.0,0.0,77,0.00,OVC,,0.01,0.0,WeatherDisplay:10.37,2013-01-12 01:00:00,
2013-01-11 19:10:00,56.1,49.7,29.91,SE,136,0.0,1.0,79,0.00,OVC,,0.01,0.0,WeatherDisplay:10.37,2013-01-12 01:10:00,
2013-01-11 19:20:00,55.8,49.4,29.91,SE,136,0.0,0.0,79,0.00,OVC,,0.01,0.0,WeatherDisplay:10.37,2013-01-12 01:20:00,
2013-01-11 19:30:00,55.8,49.4,29.91,ESE,117,1.0,1.0,79,0.00,OVC,,0.01,0.0,WeatherDisplay:10.37,2013-01-12 01:30:00,
2013-01-11 19:40:00,56.1,49.7,29.91,ESE,118,1.0,2.0,79,0.00,OVC,,0.01,0.0,WeatherDisplay:10.37,2013-01-12 01:40:00,
2013-01-11 19:50:00,55.8,49.4,29.91,ESE,123,1.0,1.0,79,0.00,OVC,,0.01,0.0,WeatherDisplay:10.37,2013-01-12 01:50:00,
2013-01-11 20:00:00,55.3,49.2,29.90,SE,125,1.0,3.0,80,0.00,OVC,,0.01,0.0,WeatherDisplay:10.37,2013-01-12 02:00:00,
2013-01-11 20:10:00,55.2,49.1,29.91,SE,133,2.0,4.0,80,0.00,OVC,,0.01,0.0,WeatherDisplay:10.37,2013-01-12 02:10:00,
2013-01-11 20:20:00,55.4,49.3,29.91,SE,135,2.0,3.0,80,0.00,OVC,,0.01,0.0,WeatherDisplay:10.37,2013-01-12 02:20:00,
2013-01-11 20:30:00,55.2,49.5,29.91,SE,141,2.0,3.0,81,0.00,OVC,,0.01,0.0,WeatherDisplay:10.37,2013-01-12 02:30:00,
2013-01-11 20:40:00,55.1,49.4,29.91,SE,135,2.0,4.0,81,0.00,OVC,,0.01,0.0,WeatherDisplay:10.37,2013-01-12 02:40:00,
2013-01-11 20:50:00,55.0,49.3,29.91,SE,133,1.0,3.0,81,0.00,OVC,,0.01,0.0,WeatherDisplay:10.37,2013-01-12 02:50:00,
2013-01-11 21:00:00,55.0,49.6,29.91,SE,132,1.0,4.0,82,0.00,OVC,,0.01,0.0,WeatherDisplay:10.37,2013-01-12 03:00:00,
2013-01-11 21:10:00,55.0,49.6,29.91,SE,131,1.0,3.0,82,0.00,OVC,,0.01,0.0,WeatherDisplay:10.37,2013-01-12 03:10:00,
2013-01-11 21:20:00,54.7,49.4,29.91,SE,136,0.0,2.0,82,0.00,OVC,,0.01,0.0,WeatherDisplay:10.37,2013-01-12 03:20:00,
2013-01-11 21:30:00,54.7,49.6,29.91,SE,136,0.0,1.0,83,0.00,OVC,,0.01,0.0,WeatherDisplay:10.37,2013-01-12 03:30:00,
2013-01-11 21:40:00,54.7,49.6,29.91,SE,125,1.0,1.0,83,0.00,OVC,,0.01,0.0,WeatherDisplay:10.37,2013-01-12 03:40:00,
2013-01-11 21:50:00,54.6,49.5,29.91,SE,129,1.0,2.0,83,0.00,OVC,,0.01,0.0,WeatherDisplay:10.37,2013-01-12 03:50:00,
2013-01-11 22:00:00,54.6,49.5,29.91,SE,129,1.0,2.0,83,0.00,OVC,,0.01,0.0,WeatherDisplay:10.37,2013-01-12 04:00:00,
2013-01-11 22:10:00,54.7,49.9,29.90,SE,133,1.0,3.0,84,0.00,OVC,,0.01,0.0,WeatherDisplay:10.37,2013-01-12 04:10:00,
2013-01-11 22:20:00,54.7,49.9,29.90,SE,128,1.0,3.0,84,0.00,OVC,,0.01,0.0,WeatherDisplay:10.37,2013-01-12 04:20:00,
2013-01-11 22:30:00,54.8,50.4,29.90,SE,137,3.0,4.0,85,0.00,OVC,,0.01,0.0,WeatherDisplay:10.37,2013-01-12 04:30:00,
2013-01-11 22:40:00,55.4,51.0,29.90,SE,137,2.0,5.0,85,0.00,OVC,,0.01,0.0,WeatherDisplay:10.37,2013-01-12 04:40:00,
2013-01-11 22:50:00,55.4,51.3,29.90,SE,141,1.0,5.0,86,0.00,OVC,,0.01,0.0,WeatherDisplay:10.37,2013-01-12 04:50:00,
2013-01-11 23:00:00,55.5,51.7,29.90,SSE,147,2.0,5.0,87,0.00,OVC,,0.01,0.0,WeatherDisplay:10.37,2013-01-12 05:00:00,
2013-01-11 23:10:00,55.2,51.7,29.90,SSE,167,1.0,3.0,88,0.00,OVC,,0.01,0.0,WeatherDisplay:10.37,2013-01-12 05:10:00,
2013-01-11 23:20:00,54.7,51.8,29.90,SSE,148,0.0,3.0,90,0.00,OVC,,0.01,0.0,WeatherDisplay:10.37,2013-01-12 05:20:00,
2013-01-11 23:30:00,54.9,52.6,29.90,SSE,149,2.0,4.0,92,0.00,OVC,,0.01,0.0,WeatherDisplay:10.37,2013-01-12 05:30:00,
2013-01-11 23:40:00,55.4,53.1,29.90,SSE,151,2.0,6.0,92,0.00,OVC,,0.01,0.0,WeatherDisplay:10.37,2013-01-12 05:40:00,
2013-01-11 23:50:00,55.7,53.4,29.90,SSE,158,2.0,6.0,92,0.00,OVC,,0.01,0.0,WeatherDisplay:10.37,2013-01-12 05:50:00,